CZ-6A DEB, 60778

Orbit data source: Space-Track

CZ-6A DEB, 60778 is space debris in LEO originally from a launch on Tue, 06 Aug 2024 UTC launched from the Taiyaun Space Center, China (TSC). Debris objects in space refer to the collection of defunct objects orbiting the Earth. Examples of debris include non-operational satellites, rocket bodies, and fragments generated from explosions, collisions, or faulty payload assembly.

Loading next visibility...
Identifier
60778, 2024-140FD
Orbit
LEO
Country
Flag of CNCN / PRC
Related business
Manufacturer
SAST
Mission
Spacecraft
Bus & Motor
Unknown
Mass
Unknown
Launch date (UTC)
2024-08-06 (2 years ago)
Launch vehicle
Unknown
Launch site
Taiyaun Space Center, China (TSC)
Object type
Payload
Rocket body
Debris
Shape & HBR
Unknown shape, 0.1 m
Radar Cross Section
Medium (>0.1 m² and <1 m²)

Expand to show TLE details & history
Last TLE update: 16 hours ago

TLE from 16 hours ago
0 CZ-6A DEB
1 60778U 24140FD  26171.22364082  .00108916  00000-0  54095-2 0  9993
2 60778  88.9968 267.4214 0031687 171.4516 188.7274 15.16768854 99965
Epoch: 2026-06-20T05:22Z
TLE epoch observation values (Epoch: 2026-06-20T05:22:02.566Z)
Latitude
-0.0001°
Longitude
-81.53064°
Altitude
540.402 km
Speed
7.58 km/s
True Right ascension
17h 49m 41s
True Declination
0° 00' 00"
Sunlit
Object was in full shadow at epoch
Visualization orbit readout
Latitude
Unknown
Longitude
Unknown
Altitude
Unknown
Speed
Unknown
Apparent Right ascension
Unknown
Apparent Declination
Unknown
Sunlit
N/A
Visualization observer readout
Local Sidereal Time
08:42:11
Azimuth
Unknown
Elevation
Unknown
Doppler factor
Unknown
Orbital elements
Apogee altitude
534.262 km
Perigee altitude
490.593 km
Semi-major axis
6,890.565 km
Eccentricity
0.00317
Inclination
88.9968°
RAAN
267.4214°
Arg. of periapsis
171.4516°
True anomaly
188.67252°
Mean anomaly
188.7274°
Eccentric anomaly
188.69994°
Mean motion
3.79456 °/min
Orbital period
94.87 mins
BSTAR
0.0054095
Loading maneuver chart data...
Computing Atmospheric mass density...
Loading historical data...
Loading historical data...
Loading historical data...
Loading historical data...
Loading historical data...
Loading historical data...
Loading historical data...

Documentation

Showing up to 5 results
|